NEOSSAT (39089 NORAD) Tracking and Keplerian Element Data

This shows tracking and keplerian element data for the satellite.

Feedback or suggestion? Click here.




ElementValue
Catalog39089
NameNEOSSAT
Epoch Orbit30360
Epoch Day348.72202913
Epoch Year2018
RAAN190.274
Inclination98.5073
Eccentricity0.0012105
Argument of Perigee119.6314
Mean Anonmoly240.6078
Mean Motion14.34447592
Decay Rate9E-08
L11 39089U 13009D 18348.72202913 .00000009 00000-0 18716-4 0 9998
L22 39089 98.5073 190.2740 0012105 119.6314 240.6078 14.34447592303602

Live tracking and technical data element details for NEOSSAT (NORAD 39089). NEOSSAT can be tracked NOW for your location showing map with azimuth and elevation plus other details from your city location.

Track the satellite on the map from your city or location and see movement details for azimuth, elevation, latitude, longitude, range, height, and movement on the map or in text.







IsCatalogInMostPopularTable: catalog: 39089, numindb: 92
Update: records affected: 1



GetName: 39089 NEOSSAT

Hit Count: updated at: Sat, 15 Dec 2018 13:48:33 GMT